This is the latest recevied weather packets stored in our database for station/object KC0UFP. If no packets are shown the sender has not sent any weather packets the latest 10 day(s).
| Time | Temp. | Humidity | Pressure | Rain* | Wind** | Luminosity | Snow |
|---|---|---|---|---|---|---|---|
| 1777343228 | 26.11° C | 81% | 1008.3 hPa | 0 mm | - | 0 W/m² | - |
| 1777342925 | 26.11° C | 81% | 1008.6 hPa | 0 mm | - | 0 W/m² | - |
| 1777342623 | 26.11° C | 81% | 1008.9 hPa | 0 mm | - | 0 W/m² | - |
| 1777342319 | 26.11° C | 81% | 1008.2 hPa | 0 mm | - | 0 W/m² | - |
| 1777342016 | 26.11° C | 80% | 1008 hPa | 0 mm | - | 0 W/m² | - |
| 1777341713 | 26.11° C | 80% | 1008.1 hPa | 0 mm | - | 0 W/m² | - |
| 1777341409 | 26.11° C | 80% | 1008.3 hPa | 0 mm | - | 0 W/m² | - |
| 1777340802 | 26.11° C | 80% | 1007.4 hPa | 0 mm | - | 0 W/m² | - |
| 1777340501 | 26.11° C | 80% | 1007.3 hPa | 0 mm | - | 0 W/m² | - |
| 1777340197 | 26.11° C | 80% | 1007.1 hPa | 0 mm | - | 0 W/m² | - |
| 1777339894 | 26.11° C | 80% | 1007.3 hPa | 0 mm | - | 0 W/m² | - |
| 1777339592 | 26.11° C | 80% | 1007.6 hPa | 0 mm | - | 0 W/m² | - |
| 1777339289 | 26.11° C | 80% | 1007.8 hPa | 0 mm | - | 0 W/m² | - |
| 1777338987 | 26.11° C | 80% | 1007.4 hPa | 0 mm | - | 0 W/m² | - |
| 1777338684 | 26.11° C | 80% | 1007.1 hPa | 0 mm | - | 0 W/m² | - |
| 1777338382 | 26.11° C | 79% | 1007.2 hPa | 0 mm | - | 0 W/m² | - |
| 1777338078 | 26.11° C | 80% | 1006.9 hPa | 0 mm | - | 0 W/m² | - |
| 1777337774 | 26.11° C | 80% | 1006.8 hPa | 0 mm | - | 1 W/m² | - |
| 1777337472 | 26.11° C | 79% | 1007.1 hPa | 0 mm | - | 1 W/m² | - |
| 1777335960 | 26.67° C | 78% | 1007.7 hPa | 0 mm | - | 14 W/m² | - |
| 1777335656 | 26.67° C | 78% | 1007.5 hPa | 0 mm | - | 18 W/m² | - |
| 1777333539 | 27.22° C | 75% | 1007.5 hPa | 0 mm | - | 48 W/m² | - |
| 1777313864 | 27.78° C | 71% | 1008 hPa | 0 mm | - | 235 W/m² | - |
| 1777312651 | 27.78° C | 71% | 1008 hPa | 0 mm | - | 307 W/m² | - |
| 1777311439 | 27.78° C | 70% | 1008.2 hPa | 0 mm | - | 252 W/m² | - |
* Rain latest hour (hover to see other rain measurements)
** Current wind speed in m/s (hover to see current wind gust speed)